Year,Month,Day,Hour,Minute,Value (Times are PST for temperature in C)
2017,07,10,00,00,18.10
2017,07,10,00,01,18.10
2017,07,10,00,02,18.20
2017,07,10,00,03,18.20
2017,07,10,00,04,18.20
2017,07,10,00,05,18.30
2017,07,10,00,06,18.30
2017,07,10,00,07,18.30
2017,07,10,00,08,18.40
2017,07,10,00,09,18.50
2017,07,10,00,10,18.50
2017,07,10,00,11,18.60
2017,07,10,00,12,18.60
2017,07,10,00,13,18.70
2017,07,10,00,14,18.70
2017,07,10,00,15,18.70
2017,07,10,00,16,18.80
2017,07,10,00,17,18.80
2017,07,10,00,18,18.80
2017,07,10,00,19,18.80
2017,07,10,00,20,18.80
2017,07,10,00,21,18.80
2017,07,10,00,22,18.80
2017,07,10,00,23,18.80
2017,07,10,00,24,18.80
2017,07,10,00,25,18.80
2017,07,10,00,26,18.80
2017,07,10,00,27,18.80
2017,07,10,00,28,18.80
2017,07,10,00,29,18.70
2017,07,10,00,30,18.70
2017,07,10,00,31,18.70
2017,07,10,00,32,18.70
2017,07,10,00,33,18.70
2017,07,10,00,34,18.70
2017,07,10,00,35,18.70
2017,07,10,00,36,18.70
2017,07,10,00,37,18.70
2017,07,10,00,38,18.70
2017,07,10,00,39,18.70
2017,07,10,00,40,18.60
2017,07,10,00,41,18.60
2017,07,10,00,42,18.60
2017,07,10,00,43,18.50
2017,07,10,00,44,18.50
2017,07,10,00,45,18.40
2017,07,10,00,46,18.40
2017,07,10,00,47,18.40
2017,07,10,00,48,18.40
2017,07,10,00,49,18.40
2017,07,10,00,50,18.40
2017,07,10,00,51,18.40
2017,07,10,00,52,18.30
2017,07,10,00,53,18.30
2017,07,10,00,54,18.30
2017,07,10,00,55,18.30
2017,07,10,00,56,18.30
2017,07,10,00,57,18.30
2017,07,10,00,58,18.20
2017,07,10,00,59,18.20
2017,07,10,01,00,18.20
2017,07,10,01,01,18.20
2017,07,10,01,02,18.20
2017,07,10,01,03,18.20
2017,07,10,01,04,18.20
2017,07,10,01,05,18.20
2017,07,10,01,06,18.20
2017,07,10,01,07,18.20
2017,07,10,01,08,18.20
2017,07,10,01,09,18.10
2017,07,10,01,10,18.10
2017,07,10,01,11,18.10
2017,07,10,01,12,18.00
2017,07,10,01,13,18.00
2017,07,10,01,14,17.90
2017,07,10,01,15,17.90
2017,07,10,01,16,17.90
2017,07,10,01,17,17.90
2017,07,10,01,18,17.80
2017,07,10,01,19,17.80
2017,07,10,01,20,17.80
2017,07,10,01,21,17.80
2017,07,10,01,22,17.70
2017,07,10,01,23,17.70
2017,07,10,01,24,17.70
2017,07,10,01,25,17.60
2017,07,10,01,26,17.60
2017,07,10,01,27,17.60
2017,07,10,01,28,17.50
2017,07,10,01,29,17.50
2017,07,10,01,30,17.40
2017,07,10,01,31,17.40
2017,07,10,01,32,17.30
2017,07,10,01,33,17.30
2017,07,10,01,34,17.30
2017,07,10,01,35,17.30
2017,07,10,01,36,17.20
2017,07,10,01,37,17.20
2017,07,10,01,38,17.20
2017,07,10,01,39,17.20
2017,07,10,01,40,17.10
2017,07,10,01,41,17.10
2017,07,10,01,42,17.10
2017,07,10,01,43,17.00
2017,07,10,01,44,17.00
2017,07,10,01,45,17.00
2017,07,10,01,46,16.90
2017,07,10,01,47,16.90
2017,07,10,01,48,16.90
2017,07,10,01,49,16.90
2017,07,10,01,50,16.80
2017,07,10,01,51,16.80
2017,07,10,01,52,16.80
2017,07,10,01,53,16.80
2017,07,10,01,54,16.80
2017,07,10,01,55,16.70
2017,07,10,01,56,16.70
2017,07,10,01,57,16.70
2017,07,10,01,58,16.70
2017,07,10,01,59,16.60
2017,07,10,02,00,16.60
2017,07,10,02,01,16.60
2017,07,10,02,02,16.60
2017,07,10,02,03,16.60
2017,07,10,02,04,16.50
2017,07,10,02,05,16.50
2017,07,10,02,06,16.50
2017,07,10,02,07,16.40
2017,07,10,02,08,16.40
2017,07,10,02,09,16.40
2017,07,10,02,10,16.40
2017,07,10,02,11,16.30
2017,07,10,02,12,16.30
2017,07,10,02,13,16.30
2017,07,10,02,14,16.20
2017,07,10,02,15,16.20
2017,07,10,02,16,16.20
2017,07,10,02,17,16.10
2017,07,10,02,18,16.10
2017,07,10,02,19,16.10
2017,07,10,02,20,16.00
2017,07,10,02,21,16.00
2017,07,10,02,22,16.00
2017,07,10,02,23,15.90
2017,07,10,02,24,15.90
2017,07,10,02,25,15.90
2017,07,10,02,26,15.90
2017,07,10,02,27,15.80
2017,07,10,02,28,15.80
2017,07,10,02,29,15.80
2017,07,10,02,30,15.70
2017,07,10,02,31,15.70
2017,07,10,02,32,15.70
2017,07,10,02,33,15.60
2017,07,10,02,34,15.60
2017,07,10,02,35,15.60
2017,07,10,02,36,15.60
2017,07,10,02,37,15.50
2017,07,10,02,38,15.50
2017,07,10,02,39,15.40
2017,07,10,02,40,15.40
2017,07,10,02,41,15.40
2017,07,10,02,42,15.40
2017,07,10,02,43,15.30
2017,07,10,02,44,15.30
2017,07,10,02,45,15.30
2017,07,10,02,46,15.30
2017,07,10,02,47,15.20
2017,07,10,02,48,15.20
2017,07,10,02,49,15.20
2017,07,10,02,50,15.20
2017,07,10,02,51,15.20
2017,07,10,02,52,15.20
2017,07,10,02,53,15.10
2017,07,10,02,54,15.10
2017,07,10,02,55,15.10
2017,07,10,02,56,15.10
2017,07,10,02,57,15.00
2017,07,10,02,58,15.00
2017,07,10,02,59,15.00
2017,07,10,03,00,14.90
2017,07,10,03,01,14.90
2017,07,10,03,02,14.90
2017,07,10,03,03,14.90
2017,07,10,03,04,14.90
2017,07,10,03,05,14.80
2017,07,10,03,06,14.80
2017,07,10,03,07,14.80
2017,07,10,03,08,14.80
2017,07,10,03,09,14.70
2017,07,10,03,10,14.70
2017,07,10,03,11,14.60
2017,07,10,03,12,14.60
2017,07,10,03,13,14.50
2017,07,10,03,14,14.50
2017,07,10,03,15,14.40
2017,07,10,03,16,14.40
2017,07,10,03,17,14.40
2017,07,10,03,18,14.30
2017,07,10,03,19,14.30
2017,07,10,03,20,14.30
2017,07,10,03,21,14.30
2017,07,10,03,22,14.30
2017,07,10,03,23,14.20
2017,07,10,03,24,14.20
2017,07,10,03,25,14.20
2017,07,10,03,26,14.20
2017,07,10,03,27,14.20
2017,07,10,03,28,14.20
2017,07,10,03,29,14.10
2017,07,10,03,30,14.10
2017,07,10,03,31,14.10
2017,07,10,03,32,14.10
2017,07,10,03,33,14.10
2017,07,10,03,34,14.10
2017,07,10,03,35,14.00
2017,07,10,03,36,14.00
2017,07,10,03,37,14.00
2017,07,10,03,38,14.00
2017,07,10,03,39,14.00
2017,07,10,03,40,14.00
2017,07,10,03,41,13.90
2017,07,10,03,42,13.90
2017,07,10,03,43,13.90
2017,07,10,03,44,13.90
2017,07,10,03,45,13.90
2017,07,10,03,46,13.90
2017,07,10,03,47,13.80
2017,07,10,03,48,13.80
2017,07,10,03,49,13.80
2017,07,10,03,50,13.80
2017,07,10,03,51,13.80
2017,07,10,03,52,13.80
2017,07,10,03,53,13.80
2017,07,10,03,54,13.80
2017,07,10,03,55,13.80
2017,07,10,03,56,13.80
2017,07,10,03,57,13.80
2017,07,10,03,58,13.80
2017,07,10,03,59,13.70
2017,07,10,04,00,13.80
2017,07,10,04,01,13.80
2017,07,10,04,02,13.80
2017,07,10,04,03,13.80
2017,07,10,04,04,13.80
2017,07,10,04,05,13.80
2017,07,10,04,06,13.80
2017,07,10,04,07,13.80
2017,07,10,04,08,13.80
2017,07,10,04,09,13.80
2017,07,10,04,10,13.70
2017,07,10,04,11,13.70
2017,07,10,04,12,13.70
2017,07,10,04,13,13.70
2017,07,10,04,14,13.70
2017,07,10,04,15,13.70
2017,07,10,04,16,13.70
2017,07,10,04,17,13.70
2017,07,10,04,18,13.70
2017,07,10,04,19,13.70
2017,07,10,04,20,13.70
2017,07,10,04,21,13.70
2017,07,10,04,22,13.70
2017,07,10,04,23,13.70
2017,07,10,04,24,13.70
2017,07,10,04,25,13.70
2017,07,10,04,26,13.70
2017,07,10,04,27,13.70
2017,07,10,04,28,13.70
2017,07,10,04,29,13.70
2017,07,10,04,30,13.70
2017,07,10,04,31,13.70
2017,07,10,04,32,13.70
2017,07,10,04,33,13.70
2017,07,10,04,34,13.70
2017,07,10,04,35,13.70
2017,07,10,04,36,13.70
2017,07,10,04,37,13.70
2017,07,10,04,38,13.70
2017,07,10,04,39,13.70
2017,07,10,04,40,13.70
2017,07,10,04,41,13.80
2017,07,10,04,42,13.80
2017,07,10,04,43,13.80
2017,07,10,04,44,13.80
2017,07,10,04,45,13.80
2017,07,10,04,46,13.80
2017,07,10,04,47,13.70
2017,07,10,04,48,13.70
2017,07,10,04,49,13.70
2017,07,10,04,50,13.70
2017,07,10,04,51,13.70
2017,07,10,04,52,13.70
2017,07,10,04,53,13.70
2017,07,10,04,54,13.70
2017,07,10,04,55,13.70
2017,07,10,04,56,13.70
2017,07,10,04,57,13.70
2017,07,10,04,58,13.70
2017,07,10,04,59,13.60
2017,07,10,05,00,13.60
2017,07,10,05,01,13.60
2017,07,10,05,02,13.60
2017,07,10,05,03,13.60
2017,07,10,05,04,13.60
2017,07,10,05,05,13.60
2017,07,10,05,06,13.60
2017,07,10,05,07,13.60
2017,07,10,05,08,13.60
2017,07,10,05,09,13.60
2017,07,10,05,10,13.60
2017,07,10,05,11,13.60
2017,07,10,05,12,13.60
2017,07,10,05,13,13.60
2017,07,10,05,14,13.60
2017,07,10,05,15,13.60
2017,07,10,05,16,13.60
2017,07,10,05,17,13.50
2017,07,10,05,18,13.50
2017,07,10,05,19,13.50
2017,07,10,05,20,13.50
2017,07,10,05,21,13.50
2017,07,10,05,22,13.50
2017,07,10,05,23,13.50
2017,07,10,05,24,13.40
2017,07,10,05,25,13.40
2017,07,10,05,26,13.40
2017,07,10,05,27,13.40
2017,07,10,05,28,13.40
2017,07,10,05,29,13.40
2017,07,10,05,30,13.40
2017,07,10,05,31,13.40
2017,07,10,05,32,13.30
2017,07,10,05,33,13.30
2017,07,10,05,34,13.30
2017,07,10,05,35,13.30
2017,07,10,05,36,13.30
2017,07,10,05,37,13.30
2017,07,10,05,38,13.30
2017,07,10,05,39,13.20
2017,07,10,05,40,13.20
2017,07,10,05,41,13.20
2017,07,10,05,42,13.20
2017,07,10,05,43,13.20
2017,07,10,05,44,13.20
2017,07,10,05,45,13.20
2017,07,10,05,46,13.20
2017,07,10,05,47,13.20
2017,07,10,05,48,13.20
2017,07,10,05,49,13.20
2017,07,10,05,50,13.20
2017,07,10,05,51,13.20
2017,07,10,05,52,13.20
2017,07,10,05,53,13.20
2017,07,10,05,54,13.20
2017,07,10,05,55,13.20
2017,07,10,05,56,13.20
2017,07,10,05,57,13.20
2017,07,10,05,58,13.30
2017,07,10,05,59,13.30
2017,07,10,06,00,13.30
2017,07,10,06,01,13.40
2017,07,10,06,02,13.40
2017,07,10,06,03,13.40
2017,07,10,06,04,13.40
2017,07,10,06,05,13.50
2017,07,10,06,06,13.50
2017,07,10,06,07,13.60
2017,07,10,06,08,13.60
2017,07,10,06,09,13.70
2017,07,10,06,10,13.70
2017,07,10,06,11,13.80
2017,07,10,06,12,13.80
2017,07,10,06,13,13.90
2017,07,10,06,14,13.90
2017,07,10,06,15,14.00
2017,07,10,06,16,14.10
2017,07,10,06,17,14.10
2017,07,10,06,18,14.20
2017,07,10,06,19,14.20
2017,07,10,06,20,14.30
2017,07,10,06,21,14.30
2017,07,10,06,22,14.40
2017,07,10,06,23,14.40
2017,07,10,06,24,14.40
2017,07,10,06,25,14.50
2017,07,10,06,26,14.50
2017,07,10,06,27,14.60
2017,07,10,06,28,14.60
2017,07,10,06,29,14.60
2017,07,10,06,30,14.60
2017,07,10,06,31,14.70
2017,07,10,06,32,14.70
2017,07,10,06,33,14.70
2017,07,10,06,34,14.70
2017,07,10,06,35,14.70
2017,07,10,06,36,14.80
2017,07,10,06,37,14.80
2017,07,10,06,38,14.80
2017,07,10,06,39,14.90
2017,07,10,06,40,14.90
2017,07,10,06,41,15.00
2017,07,10,06,42,15.00
2017,07,10,06,43,15.10
2017,07,10,06,44,15.10
2017,07,10,06,45,15.20
2017,07,10,06,46,15.20
2017,07,10,06,47,15.30
2017,07,10,06,48,15.30
2017,07,10,06,49,15.30
2017,07,10,06,50,15.30
2017,07,10,06,51,15.30
2017,07,10,06,52,15.30
2017,07,10,06,53,15.40
2017,07,10,06,54,15.40
2017,07,10,06,55,15.40
2017,07,10,06,56,15.50
2017,07,10,06,57,15.50
2017,07,10,06,58,15.60
2017,07,10,06,59,15.60
2017,07,10,07,00,15.70
2017,07,10,07,01,15.70
2017,07,10,07,02,15.70
2017,07,10,07,03,15.80
2017,07,10,07,04,15.80
2017,07,10,07,05,15.80
2017,07,10,07,06,15.90
2017,07,10,07,07,15.90
2017,07,10,07,08,15.90
2017,07,10,07,09,15.90
2017,07,10,07,10,15.90
2017,07,10,07,11,16.00
2017,07,10,07,12,16.00
2017,07,10,07,13,16.00
2017,07,10,07,14,16.10
2017,07,10,07,15,16.10
2017,07,10,07,16,16.10
2017,07,10,07,17,16.10
2017,07,10,07,18,16.10
2017,07,10,07,19,16.20
2017,07,10,07,20,16.20
2017,07,10,07,21,16.20
2017,07,10,07,22,16.30
2017,07,10,07,23,16.30
2017,07,10,07,24,16.30
2017,07,10,07,25,16.30
2017,07,10,07,26,16.40
2017,07,10,07,27,16.40
2017,07,10,07,28,16.40
2017,07,10,07,29,16.50
2017,07,10,07,30,16.50
2017,07,10,07,31,16.50
2017,07,10,07,32,16.60
2017,07,10,07,33,16.60
2017,07,10,07,34,16.60
2017,07,10,07,35,16.60
2017,07,10,07,36,16.60
2017,07,10,07,37,16.60
2017,07,10,07,38,16.70
2017,07,10,07,39,16.70
2017,07,10,07,40,16.70
2017,07,10,07,41,16.70
2017,07,10,07,42,16.70
2017,07,10,07,43,16.70
2017,07,10,07,44,16.70
2017,07,10,07,45,16.80
2017,07,10,07,46,16.80
2017,07,10,07,47,16.80
2017,07,10,07,48,16.80
2017,07,10,07,49,16.80
2017,07,10,07,50,16.90
2017,07,10,07,51,16.90
2017,07,10,07,52,16.90
2017,07,10,07,53,17.00
2017,07,10,07,54,17.00
2017,07,10,07,55,17.00
2017,07,10,07,56,17.10
2017,07,10,07,57,17.10
2017,07,10,07,58,17.10
2017,07,10,07,59,17.20
2017,07,10,08,00,17.20
2017,07,10,08,01,17.20
2017,07,10,08,02,17.20
2017,07,10,08,03,17.30
2017,07,10,08,04,17.30
2017,07,10,08,05,17.30
2017,07,10,08,06,17.30
2017,07,10,08,07,17.30
2017,07,10,08,08,17.30
2017,07,10,08,09,17.30
2017,07,10,08,10,17.30
2017,07,10,08,11,17.30
2017,07,10,08,12,17.30
2017,07,10,08,13,17.30
2017,07,10,08,14,17.40
2017,07,10,08,15,17.40
2017,07,10,08,16,17.40
2017,07,10,08,17,17.40
2017,07,10,08,18,17.40
2017,07,10,08,19,17.40
2017,07,10,08,20,17.40
2017,07,10,08,21,17.40
2017,07,10,08,22,17.40
2017,07,10,08,23,17.40
2017,07,10,08,24,17.30
2017,07,10,08,25,17.30
2017,07,10,08,26,17.30
2017,07,10,08,27,17.30
2017,07,10,08,28,17.30
2017,07,10,08,29,17.30
2017,07,10,08,30,17.30
2017,07,10,08,31,17.30
2017,07,10,08,32,17.30
2017,07,10,08,33,17.30
2017,07,10,08,34,17.30
2017,07,10,08,35,17.30
2017,07,10,08,36,17.40
2017,07,10,08,37,17.40
2017,07,10,08,38,17.40
2017,07,10,08,39,17.40
2017,07,10,08,40,17.40
2017,07,10,08,41,17.40
2017,07,10,08,42,17.40
2017,07,10,08,43,17.40
2017,07,10,08,44,17.40
2017,07,10,08,45,17.40
2017,07,10,08,46,17.50
2017,07,10,08,47,17.50
2017,07,10,08,48,17.50
2017,07,10,08,49,17.60
2017,07,10,08,50,17.60
2017,07,10,08,51,17.60
2017,07,10,08,52,17.60
2017,07,10,08,53,17.60
2017,07,10,08,54,17.60
2017,07,10,08,55,17.70
2017,07,10,08,56,17.70
2017,07,10,08,57,17.70
2017,07,10,08,58,17.70
2017,07,10,08,59,17.70
2017,07,10,09,00,17.70
2017,07,10,09,01,17.70
2017,07,10,09,02,17.70
2017,07,10,09,03,17.70
2017,07,10,09,04,17.70
2017,07,10,09,05,17.70
2017,07,10,09,06,17.70
2017,07,10,09,07,17.70
2017,07,10,09,08,17.80
2017,07,10,09,09,17.80
2017,07,10,09,10,17.80
2017,07,10,09,11,17.80
2017,07,10,09,12,17.90
2017,07,10,09,13,17.90
2017,07,10,09,14,17.90
2017,07,10,09,15,17.90
2017,07,10,09,16,17.90
2017,07,10,09,17,18.00
2017,07,10,09,18,18.00
2017,07,10,09,19,18.00
2017,07,10,09,20,18.10
2017,07,10,09,21,18.10
2017,07,10,09,22,18.10
2017,07,10,09,23,18.20
2017,07,10,09,24,18.20
2017,07,10,09,25,18.20
2017,07,10,09,26,18.20
2017,07,10,09,27,18.30
2017,07,10,09,28,18.30
2017,07,10,09,29,18.30
2017,07,10,09,30,18.20
2017,07,10,09,31,18.20
2017,07,10,09,32,18.20
2017,07,10,09,33,18.20
2017,07,10,09,34,18.20
2017,07,10,09,35,18.20
2017,07,10,09,36,18.20
2017,07,10,09,37,18.30
2017,07,10,09,38,18.30
2017,07,10,09,39,18.30
2017,07,10,09,40,18.30
2017,07,10,09,41,18.30
2017,07,10,09,42,18.30
2017,07,10,09,43,18.40
2017,07,10,09,44,18.40
2017,07,10,09,45,18.30
2017,07,10,09,46,18.40
2017,07,10,09,47,18.40
2017,07,10,09,48,18.40
2017,07,10,09,49,18.40
2017,07,10,09,50,18.40
2017,07,10,09,51,18.40
2017,07,10,09,52,18.40
2017,07,10,09,53,18.50
2017,07,10,09,54,18.50
2017,07,10,09,55,18.60
2017,07,10,09,56,18.60
2017,07,10,09,57,18.60
2017,07,10,09,58,18.60
2017,07,10,09,59,18.70
2017,07,10,10,00,18.70
2017,07,10,10,01,18.70
2017,07,10,10,02,18.70
2017,07,10,10,03,18.70
2017,07,10,10,04,18.80
2017,07,10,10,05,18.80
2017,07,10,10,06,18.90
2017,07,10,10,07,18.90
2017,07,10,10,08,18.90
2017,07,10,10,09,19.00
2017,07,10,10,10,18.90
2017,07,10,10,11,18.90
2017,07,10,10,12,18.90
2017,07,10,10,13,18.90
2017,07,10,10,14,18.90
2017,07,10,10,15,18.90
2017,07,10,10,16,18.90
2017,07,10,10,17,18.90
2017,07,10,10,18,18.80
2017,07,10,10,19,18.90
2017,07,10,10,20,18.90
2017,07,10,10,21,19.00
2017,07,10,10,22,19.00
2017,07,10,10,23,19.00
2017,07,10,10,24,18.90
2017,07,10,10,25,18.90
2017,07,10,10,26,18.90
2017,07,10,10,27,18.90
2017,07,10,10,28,18.90
2017,07,10,10,29,18.90
2017,07,10,10,30,19.00
2017,07,10,10,31,19.00
2017,07,10,10,32,19.00
2017,07,10,10,33,19.00
2017,07,10,10,34,19.00
2017,07,10,10,35,19.10
2017,07,10,10,36,19.10
2017,07,10,10,37,19.10
2017,07,10,10,38,19.10
2017,07,10,10,39,19.00
2017,07,10,10,40,19.00
2017,07,10,10,41,18.90
2017,07,10,10,42,18.80
2017,07,10,10,43,18.70
2017,07,10,10,44,18.50
2017,07,10,10,45,18.40
2017,07,10,10,46,18.40
2017,07,10,10,47,18.30
2017,07,10,10,48,18.30
2017,07,10,10,49,18.20
2017,07,10,10,50,18.20
2017,07,10,10,51,18.20
2017,07,10,10,52,18.20
2017,07,10,10,53,18.20
2017,07,10,10,54,18.20
2017,07,10,10,55,18.20
2017,07,10,10,56,18.20
2017,07,10,10,57,18.20
2017,07,10,10,58,18.20
2017,07,10,10,59,18.20
2017,07,10,11,00,18.20
2017,07,10,11,01,18.30
2017,07,10,11,02,18.40
2017,07,10,11,03,18.40
2017,07,10,11,04,18.50
2017,07,10,11,05,18.60
2017,07,10,11,06,18.60
2017,07,10,11,07,18.50
2017,07,10,11,08,18.50
2017,07,10,11,09,18.50
2017,07,10,11,10,18.50
2017,07,10,11,11,18.60
2017,07,10,11,12,18.60
2017,07,10,11,13,18.70
2017,07,10,11,14,18.90
2017,07,10,11,15,19.00
2017,07,10,11,16,19.10
2017,07,10,11,17,19.20
2017,07,10,11,18,19.30
2017,07,10,11,19,19.40
2017,07,10,11,20,19.50
2017,07,10,11,21,19.70
2017,07,10,11,22,19.80
2017,07,10,11,23,19.90
2017,07,10,11,24,20.00
2017,07,10,11,25,20.00
2017,07,10,11,26,20.00
2017,07,10,11,27,20.00
2017,07,10,11,28,20.00
2017,07,10,11,29,19.90
2017,07,10,11,30,19.80
2017,07,10,11,31,19.80
2017,07,10,11,32,19.80
2017,07,10,11,33,19.70
2017,07,10,11,34,19.60
2017,07,10,11,35,19.50
2017,07,10,11,36,19.50
2017,07,10,11,37,19.40
2017,07,10,11,38,19.40
2017,07,10,11,39,19.40
2017,07,10,11,40,19.40
2017,07,10,11,41,19.40
2017,07,10,11,42,19.40
2017,07,10,11,43,19.30
2017,07,10,11,44,19.30
2017,07,10,11,45,19.30
2017,07,10,11,46,19.30
2017,07,10,11,47,19.40
2017,07,10,11,48,19.50
2017,07,10,11,49,19.60
2017,07,10,11,50,19.60
2017,07,10,11,51,19.60
2017,07,10,11,52,19.70
2017,07,10,11,53,19.70
2017,07,10,11,54,19.60
2017,07,10,11,55,19.50
2017,07,10,11,56,19.40
2017,07,10,11,57,19.30
2017,07,10,11,58,19.30
2017,07,10,11,59,19.30
2017,07,10,12,00,19.30
2017,07,10,12,01,19.30
2017,07,10,12,02,19.20
2017,07,10,12,03,19.20
2017,07,10,12,04,19.10
2017,07,10,12,05,19.00
2017,07,10,12,06,18.90
2017,07,10,12,07,18.90
2017,07,10,12,08,18.90
2017,07,10,12,09,19.00
2017,07,10,12,10,19.10
2017,07,10,12,11,19.10
2017,07,10,12,12,19.20
2017,07,10,12,13,19.30
2017,07,10,12,14,19.40
2017,07,10,12,15,19.50
2017,07,10,12,16,19.50
2017,07,10,12,17,19.60
2017,07,10,12,18,19.60
2017,07,10,12,19,19.60
2017,07,10,12,20,19.70
2017,07,10,12,21,19.70
2017,07,10,12,22,19.70
2017,07,10,12,23,19.70
2017,07,10,12,24,19.70
2017,07,10,12,25,19.70
2017,07,10,12,26,19.60
2017,07,10,12,27,19.60
2017,07,10,12,28,19.50
2017,07,10,12,29,19.40
2017,07,10,12,30,19.50
2017,07,10,12,31,19.50
2017,07,10,12,32,19.50
2017,07,10,12,33,19.40
2017,07,10,12,34,19.40
2017,07,10,12,35,19.40
2017,07,10,12,36,19.40
2017,07,10,12,37,19.40
2017,07,10,12,38,19.30
2017,07,10,12,39,19.30
2017,07,10,12,40,19.30
2017,07,10,12,41,19.30
2017,07,10,12,42,19.30
2017,07,10,12,43,19.30
2017,07,10,12,44,19.30
2017,07,10,12,45,19.30
2017,07,10,12,46,19.30
2017,07,10,12,47,19.30
2017,07,10,12,48,19.30
2017,07,10,12,49,19.30
2017,07,10,12,50,19.40
2017,07,10,12,51,19.40
2017,07,10,12,52,19.50
2017,07,10,12,53,19.50
2017,07,10,12,54,19.50
2017,07,10,12,55,19.40
2017,07,10,12,56,19.30
2017,07,10,12,57,19.20
2017,07,10,12,58,19.20
2017,07,10,12,59,19.10
2017,07,10,13,00,19.00
2017,07,10,13,01,19.00
2017,07,10,13,02,19.00
2017,07,10,13,03,19.00
2017,07,10,13,04,18.90
2017,07,10,13,05,18.90
2017,07,10,13,06,18.90
2017,07,10,13,07,18.80
2017,07,10,13,08,18.80
2017,07,10,13,09,18.70
2017,07,10,13,10,18.60
2017,07,10,13,11,18.60
2017,07,10,13,12,18.50
2017,07,10,13,13,18.60
2017,07,10,13,14,18.60
2017,07,10,13,15,18.60
2017,07,10,13,16,18.70
2017,07,10,13,17,18.80
2017,07,10,13,18,18.90
2017,07,10,13,19,19.00
2017,07,10,13,20,19.10
2017,07,10,13,21,19.10
2017,07,10,13,22,19.00
2017,07,10,13,23,19.00
2017,07,10,13,24,19.00
2017,07,10,13,25,19.00
2017,07,10,13,26,19.00
2017,07,10,13,27,19.10
2017,07,10,13,28,19.10
2017,07,10,13,29,19.10
2017,07,10,13,30,19.10
2017,07,10,13,31,19.10
2017,07,10,13,32,19.20
2017,07,10,13,33,19.30
2017,07,10,13,34,19.30
2017,07,10,13,35,19.40
2017,07,10,13,36,19.40
2017,07,10,13,37,19.40
2017,07,10,13,38,19.40
2017,07,10,13,39,19.40
2017,07,10,13,40,19.30
2017,07,10,13,41,19.30
2017,07,10,13,42,19.30
2017,07,10,13,43,19.30
2017,07,10,13,44,19.30
2017,07,10,13,45,19.20
2017,07,10,13,46,19.10
2017,07,10,13,47,19.00
2017,07,10,13,48,19.00
2017,07,10,13,49,18.90
2017,07,10,13,50,18.90
2017,07,10,13,51,18.80
2017,07,10,13,52,18.80
2017,07,10,13,53,18.70
2017,07,10,13,54,18.70
2017,07,10,13,55,18.70
2017,07,10,13,56,18.70
2017,07,10,13,57,18.70
2017,07,10,13,58,18.70
2017,07,10,13,59,18.60
2017,07,10,14,00,18.60
2017,07,10,14,01,18.60
2017,07,10,14,02,18.60
2017,07,10,14,03,18.60
2017,07,10,14,04,18.60
2017,07,10,14,05,18.60
2017,07,10,14,06,18.60
2017,07,10,14,07,18.60
2017,07,10,14,08,18.50
2017,07,10,14,09,18.40
2017,07,10,14,10,18.40
2017,07,10,14,11,18.40
2017,07,10,14,12,18.40
2017,07,10,14,13,18.40
2017,07,10,14,14,18.40
2017,07,10,14,15,18.40
2017,07,10,14,16,18.40
2017,07,10,14,17,18.40
2017,07,10,14,18,18.40
2017,07,10,14,19,18.40
2017,07,10,14,20,18.40
2017,07,10,14,21,18.40
2017,07,10,14,22,18.40
2017,07,10,14,23,18.50
2017,07,10,14,24,18.50
2017,07,10,14,25,18.50
2017,07,10,14,26,18.50
2017,07,10,14,27,18.50
2017,07,10,14,28,18.50
2017,07,10,14,29,18.60
2017,07,10,14,30,18.60
2017,07,10,14,31,18.60
2017,07,10,14,32,18.60
2017,07,10,14,33,18.60
2017,07,10,14,34,18.60
2017,07,10,14,35,18.60
2017,07,10,14,36,18.60
2017,07,10,14,37,18.60
2017,07,10,14,38,18.60
2017,07,10,14,39,18.60
2017,07,10,14,40,18.60
2017,07,10,14,41,18.60
2017,07,10,14,42,18.60
2017,07,10,14,43,18.60
2017,07,10,14,44,18.60
2017,07,10,14,45,18.60
2017,07,10,14,46,18.50
2017,07,10,14,47,18.60
2017,07,10,14,48,18.60
2017,07,10,14,49,18.60
2017,07,10,14,50,18.50
2017,07,10,14,51,18.50
2017,07,10,14,52,18.50
2017,07,10,14,53,18.50
2017,07,10,14,54,18.50
2017,07,10,14,55,18.50
2017,07,10,14,56,18.50
2017,07,10,14,57,18.60
2017,07,10,14,58,18.50
2017,07,10,14,59,18.60
2017,07,10,15,00,18.60
2017,07,10,15,01,18.60
2017,07,10,15,02,18.50
2017,07,10,15,03,18.50
2017,07,10,15,04,18.50
2017,07,10,15,05,18.40
2017,07,10,15,06,18.40
2017,07,10,15,07,18.40
2017,07,10,15,08,18.40
2017,07,10,15,09,18.40
2017,07,10,15,10,18.40
2017,07,10,15,11,18.30
2017,07,10,15,12,18.30
2017,07,10,15,13,18.30
2017,07,10,15,14,18.40
2017,07,10,15,15,18.40
2017,07,10,15,16,18.40
2017,07,10,15,17,18.40
2017,07,10,15,18,18.40
2017,07,10,15,19,18.40
2017,07,10,15,20,18.50
2017,07,10,15,21,18.50
2017,07,10,15,22,18.50
2017,07,10,15,23,18.50
2017,07,10,15,24,18.50
2017,07,10,15,25,18.50
2017,07,10,15,26,18.50
2017,07,10,15,27,18.50
2017,07,10,15,28,18.50
2017,07,10,15,29,18.50
2017,07,10,15,30,18.60
2017,07,10,15,31,18.60
2017,07,10,15,32,18.60
2017,07,10,15,33,18.60
2017,07,10,15,34,18.60
2017,07,10,15,35,18.60
2017,07,10,15,36,18.60
2017,07,10,15,37,18.60
2017,07,10,15,38,18.70
2017,07,10,15,39,18.60
2017,07,10,15,40,18.60
2017,07,10,15,41,18.60
2017,07,10,15,42,18.50
2017,07,10,15,43,18.50
2017,07,10,15,44,18.50
2017,07,10,15,45,18.40
2017,07,10,15,46,18.40
2017,07,10,15,47,18.40
2017,07,10,15,48,18.40
2017,07,10,15,49,18.40
2017,07,10,15,50,18.40
2017,07,10,15,51,18.50
2017,07,10,15,52,18.50
2017,07,10,15,53,18.50
2017,07,10,15,54,18.50
2017,07,10,15,55,18.50
2017,07,10,15,56,18.50
2017,07,10,15,57,18.50
2017,07,10,15,58,18.40
2017,07,10,15,59,18.40
2017,07,10,16,00,18.40
2017,07,10,16,01,18.40
2017,07,10,16,02,18.40
2017,07,10,16,03,18.40
2017,07,10,16,04,18.40
2017,07,10,16,05,18.40
2017,07,10,16,06,18.50
2017,07,10,16,07,18.50
2017,07,10,16,08,18.50
2017,07,10,16,09,18.50
2017,07,10,16,10,18.50
2017,07,10,16,11,18.50
2017,07,10,16,12,18.40
2017,07,10,16,13,18.40
2017,07,10,16,14,18.40
2017,07,10,16,15,18.40
2017,07,10,16,16,18.30
2017,07,10,16,17,18.30
2017,07,10,16,18,18.20
2017,07,10,16,19,18.20
2017,07,10,16,20,18.20
2017,07,10,16,21,18.10
2017,07,10,16,22,18.10
2017,07,10,16,23,18.10
2017,07,10,16,24,18.10
2017,07,10,16,25,18.10
2017,07,10,16,26,18.10
2017,07,10,16,27,18.00
2017,07,10,16,28,18.10
2017,07,10,16,29,18.10
2017,07,10,16,30,18.10
2017,07,10,16,31,18.10
2017,07,10,16,32,18.10
2017,07,10,16,33,18.10
2017,07,10,16,34,18.10
2017,07,10,16,35,18.10
2017,07,10,16,36,18.10
2017,07,10,16,37,18.10
2017,07,10,16,38,18.10
2017,07,10,16,39,18.10
2017,07,10,16,40,18.10
2017,07,10,16,41,18.20
2017,07,10,16,42,18.20
2017,07,10,16,43,18.20
2017,07,10,16,44,18.20
2017,07,10,16,45,18.20
2017,07,10,16,46,18.20
2017,07,10,16,47,18.20
2017,07,10,16,48,18.20
2017,07,10,16,49,18.10
2017,07,10,16,50,18.10
2017,07,10,16,51,18.10
2017,07,10,16,52,18.10
2017,07,10,16,53,18.10
2017,07,10,16,54,18.00
2017,07,10,16,55,18.00
2017,07,10,16,56,18.00
2017,07,10,16,57,17.90
2017,07,10,16,58,17.90
2017,07,10,16,59,17.90
2017,07,10,17,00,17.90
2017,07,10,17,01,17.90
2017,07,10,17,02,17.90
2017,07,10,17,03,18.00
2017,07,10,17,04,18.00
2017,07,10,17,05,18.10
2017,07,10,17,06,18.10
2017,07,10,17,07,18.10
2017,07,10,17,08,18.10
2017,07,10,17,09,18.10
2017,07,10,17,10,18.20
2017,07,10,17,11,18.20
2017,07,10,17,12,18.30
2017,07,10,17,13,18.30
2017,07,10,17,14,18.30
2017,07,10,17,15,18.30
2017,07,10,17,16,18.30
2017,07,10,17,17,18.40
2017,07,10,17,18,18.40
2017,07,10,17,19,18.40